Location: Bern�tre
(50.1974°N, 2.0915°E)
Time: 23:24:47
(UTC+00:00)

NOSS 2-3 (D) - Pass Details

Date: 18 September 2020
Orbit: 573 x 1638 km, 63.4° (Epoch: 09 October)

Event Time Altitude Azimuth Distance (km) Brightness Sun altitude
Rises 18:21:19 0° 235° (SW) 2,813 7.7 -4.6°
Reaches altitude 10° 18:23:26 10° 239° (WSW) 1,965 7.0 -4.9°
Maximum altitude 18:27:44 59° 320° (NW) 788 4.4 -5.6°
Drops below altitude 10° 18:32:59 10° 40° (NE) 2,392 6.3 -6.4°
Sets 18:35:47 0° 44° (NE) 3,492 7.1 -6.9°
